[[{"header":{"parameterUnit":"m.s-1","parameterCategory":1,"la1":30.2991,"la2":30.254,"lo1":-89.0895,"lo2":-89.0444,"dy":0.0017,"dx":0.0017,"nx":28,"ny":28,"refTime":"2024-08-22T09:00:00:Z","depth":0,"parameterNumber":2,"parameterNumberName":"U-component_of_WINDS"},"data":[0,0,0,0,0,0,0,0,0,0,0,0,0,0,0,0,0,0,0,0,0,0,0,0,0,0,0,0,0,0,0,0,0,0,0,0,0,0,0,0,0,0,0,0,0,0,0,0,0,0,0,0,0,0,0,0,0,0,-4.9377,-4.9377,0,-4.9334,-4.9333,-4.9333,-4.9161,-4.9157,-4.9153,-4.9149,-4.9108,-4.9111,-4.9113,0,0,0,0,0,0,0,0,0,0,0,0,0,-4.9314,-4.9316,-4.9377,-4.9377,-4.9376,-4.9334,-4.9333,-4.9333,-4.9161,-4.9156,-4.9152,-4.9147,-4.9107,-4.9111,-4.9114,0,0,0,0,0,0,0,0,0,0,0,0,0,-4.9313,-4.9317,-4.9377,-4.9285,-4.9277,-4.9334,-4.9333,-4.9332,-4.9162,-4.9156,-4.915,-4.9145,-4.9106,-4.911,-4.9114,-4.9258,0,0,-4.9126,-4.9128,0,0,0,0,0,0,0,0,-4.9314,-4.9316,-4.9299,-4.9292,-4.9282,-4.9246,-4.9296,-4.9307,-4.9164,-4.9206,-4.9149,-4.9142,-4.9159,-4.9159,-4.9164,-4.9256,-4.9254,-4.9126,-4.9129,-4.9131,-4.9132,0,0,0,0,0,0,0,-4.9314,-4.9317,-4.936,-4.9299,-4.9289,-4.9247,-4.924,-4.9297,-4.9217,-4.9202,-4.9189,-4.9186,-4.9153,-4.916,-4.9161,-4.9253,-4.9126,-4.913,-4.9132,-4.9134,-4.9459,-4.9465,0,0,0,0,0,0,-4.9327,-4.9318,-4.9361,-4.9359,-4.9283,-4.9253,-4.9246,-4.9264,-4.9216,-4.9202,-4.9191,-4.9178,-4.9156,-4.9157,-4.9159,-4.9322,-4.913,-4.9134,-4.9136,-4.9453,-4.946,-4.9467,0,0,0,0,0,0,-4.9326,-4.9332,-4.9363,-4.9335,-4.9336,-4.926,-4.9283,-4.9266,-4.9273,-4.9208,-4.9193,-4.9213,-4.9152,-4.9154,-4.9234,-4.9318,-4.9136,-4.914,-4.9445,-4.9455,-4.9464,-4.965,0,0,0,0,0,0,-4.9325,-4.9333,-4.9386,-4.9337,-4.9338,-4.9438,-4.9288,-4.927,-4.9279,-4.9262,-4.9224,-4.9212,-4.9147,-4.9229,-4.9238,-4.932,-4.9143,-4.9437,-4.945,-4.9461,-4.9636,-4.9665,-4.9689,0,0,0,0,0,-4.9323,-4.9442,-4.939,-4.9396,-4.9403,-4.9443,-4.9443,-4.9366,-4.9287,-4.934,-4.9298,-4.9213,-4.9308,-4.9238,-4.9247,-4.9332,-4.9432,-4.9446,-4.946,-4.9624,-4.9659,-4.9689,0,0,0,0,0,0,-4.9504,-4.9434,-4.9375,-4.9481,-4.9469,-4.9414,-4.9478,-4.9406,-4.9417,-4.94,-4.9304,-4.9297,-4.9391,-4.937,-4.9293,-4.9467,-4.9355,-4.9372,-4.9477,-4.951,-4.9536,-4.9539,-4.9146,0,0,0,0,0,-4.9556,-4.9594,-4.9531,-4.9631,-4.9627,-4.9555,-4.9569,-4.951,-4.9495,-4.9489,-4.9453,-4.9442,-4.9468,-4.9489,-4.951,-4.9633,-4.9621,-4.9696,-4.9722,-4.9745,-4.9759,-4.9821,-4.9853,-4.9513,-4.9513,-4.9513,0,0,-4.9665,-4.9631,-4.9661,-4.9666,-4.965,-4.9691,-4.9552,-4.9602,-4.9632,-4.9497,-4.9569,-4.9543,-4.9524,-4.9626,-4.9669,-4.9611,-4.9851,-4.9763,-4.9781,-4.9783,-4.9839,-4.9871,-4.9899,-4.9523,-4.9521,-4.952,0,0,-4.9882,-4.9862,-4.9941,-4.9927,-4.9903,-4.9854,-4.9873,-4.9829,-4.9805,-4.9876,-4.9775,-4.981,-4.9859,-4.9849,-4.9851,-5.0064,-4.9986,-5.0075,-5.0213,-5.0274,-5.0301,-5.0324,-5.0398,-5.0426,-5.009,-5.009,-5.0091,0,-5.002,-5.0077,-4.9991,-5.0047,-5.0052,-4.9931,-5.001,-5.0002,-4.9988,-4.9994,-4.993,-4.9987,-4.9966,-5.0063,-5.0115,-5.0121,-5.0139,-5.0077,-5.0304,-5.0326,-5.0346,-5.0416,-5.0444,-5.0101,-5.01,-5.0099,-5.0098,0,-5.0247,-5.0288,-5.0356,-5.0342,-5.0355,-5.0423,-5.0348,-5.0371,-5.0312,-5.0269,-5.0343,-5.0313,-5.0325,-5.0345,-5.0288,-5.0433,-5.0398,-5.0321,-5.0205,-5.0391,-5.0454,-5.0481,-5.0116,-5.0113,-5.0109,-5.0107,0,0,-5.0577,-5.0514,-5.054,-5.0531,-5.0496,-5.0527,-5.059,-5.06,-5.0621,-5.0616,-5.0665,-5.071,-5.0637,-5.0639,-5.058,-5.0634,-5.0803,-5.0549,-5.0547,-5.0596,-5.0959,-5.1016,-5.1048,-5.0751,-5.0756,-5.076,-5.096,0,-5.0782,-5.0883,-5.0807,-5.0922,-5.0958,-5.0843,-5.0897,-5.0883,-5.0845,-5.0871,-5.083,-5.0862,-5.0765,-5.0765,-5.0813,-5.0772,-5.0874,-5.0757,-5.0796,-5.0798,-5.0802,-5.1081,-5.1142,-5.1332,-5.0984,-5.0989,-5.0992,0,-5.1035,-5.1038,-5.1156,-5.1111,-5.1123,-5.1174,-5.1176,-5.1203,-5.1183,-5.1152,-5.1154,-5.1081,-5.1139,-5.1028,-5.1107,-5.1029,-5.1041,-5.1024,-5.1029,-5.1028,-5.0905,-5.1086,-5.139,-5.1418,-5.103,-5.1027,-5.1025,0,-5.1261,-5.1295,-5.1369,-5.1366,-5.1316,-5.1353,-5.1335,-5.1309,-5.132,-5.1323,-5.1329,-5.1341,-5.1346,-5.1357,-5.1288,-5.1214,-5.1376,-5.126,-5.1351,-5.1353,-5.1389,-5.1387,-5.1697,-5.1401,-5.1401,-5.14,-5.14,0,-5.1496,-5.1573,-5.1469,-5.1515,-5.1596,-5.1509,-5.1593,-5.1562,-5.154,-5.1578,-5.1482,-5.152,-5.1428,-5.1457,-5.1404,-5.1477,-5.1481,-5.1457,-5.1442,-5.1464,-5.1467,-5.1469,-5.1453,-5.1408,-5.1406,-5.1405,-5.1403,0,-5.1761,-5.1695,-5.1768,-5.1714,-5.1703,-5.1765,-5.172,-5.176,-5.1716,-5.1765,-5.1772,-5.1703,-5.1732,-5.1665,-5.1685,-5.165,-5.1752,-5.1718,-5.1758,-5.1747,-5.1841,-5.1832,-5.2161,-5.2199,-5.1882,-5.1885,-5.1888,0,-5.1915,-5.197,-5.1922,-5.1939,-5.1925,-5.1955,-5.1964,-5.1881,-5.1895,-5.1877,-5.192,-5.194,-5.1951,-5.2003,-5.1956,-5.197,-5.1933,-5.2048,-5.1935,-5.1955,-5.1932,-5.1928,-5.1933,-5.207,-5.2074,-5.2077,-5.208,0,-5.2194,-5.2158,-5.2174,-5.2179,-5.2193,-5.2194,-5.2188,-5.2208,-5.2119,-5.214,-5.2167,-5.2176,-5.2195,-5.2217,-5.222,-5.2202,-5.2127,-5.2116,-5.2138,-5.216,-5.218,-5.2168,-5.1819,-5.2108,-5.2106,-5.2104,-5.2102,-5.2101,-5.2405,-5.2448,-5.242,-5.2441,-5.2427,-5.2424,-5.2458,-5.2417,-5.2438,-5.2445,-5.2396,-5.2433,-5.2412,-5.2409,-5.2399,-5.2427,-5.2375,-5.2407,-5.2415,-5.2423,-5.2437,-5.2178,-5.2428,-5.2427,-5.2427,-5.2426,-5.2425,0,-5.2676,-5.2652,-5.2673,-5.2666,-5.2683,-5.2609,-5.2598,-5.2618,-5.2651,-5.2637,-5.265,-5.2681,-5.2701,-5.2655,-5.2668,-5.27,-5.2665,-5.2706,-5.2701,-5.2698,-5.2484,-5.2463,-5.2733,-5.2733,-5.2733,-5.2733,-5.2733,-5.2733,-5.2819,-5.2886,-5.2847,-5.2907,-5.2883,-5.2917,-5.2917,-5.2913,-5.29,-5.2938,-5.2954,-5.2923,-5.2896,-5.2906,-5.2922,-5.2908,-5.2916,-5.2968,-5.2943,-5.2743,-5.2713,-5.2685,-5.2664,-5.2972,-5.2972,-5.3153,-5.3155,-5.3156]},{"header":{"parameterUnit":"m.s-1","parameterCategory":1,"la1":30.2991,"la2":30.254,"lo1":-89.0895,"lo2":-89.0444,"dy":0.0017,"dx":0.0017,"nx":28,"ny":28,"refTime":"2024-08-22T09:00:00:Z","depth":0,"parameterNumber":3,"parameterNumberName":"V-component_of_WINDS"},"data":[0,0,0,0,0,0,0,0,0,0,0,0,0,0,0,0,0,0,0,0,0,0,0,0,0,0,0,0,0,0,0,0,0,0,0,0,0,0,0,0,0,0,0,0,0,0,0,0,0,0,0,0,0,0,0,0,0,0,-2.5948,-2.5949,0,-2.601,-2.6011,-2.6011,-2.6023,-2.6023,-2.6022,-2.6022,-2.6081,-2.6083,-2.6085,0,0,0,0,0,0,0,0,0,0,0,0,0,-2.5837,-2.5839,-2.5948,-2.5949,-2.595,-2.601,-2.6011,-2.6011,-2.6023,-2.6023,-2.6022,-2.6022,-2.6081,-2.6083,-2.6086,0,0,0,0,0,0,0,0,0,0,0,0,0,-2.589,-2.5839,-2.5948,-2.5963,-2.5965,-2.601,-2.6011,-2.6012,-2.6023,-2.6023,-2.6022,-2.6021,-2.608,-2.6083,-2.6086,-2.6119,0,0,-2.6095,-2.6096,0,0,0,0,0,0,0,0,-2.5887,-2.5894,-2.596,-2.5962,-2.5964,-2.6008,-2.5993,-2.6048,-2.6024,-2.6001,-2.6022,-2.6021,-2.6057,-2.6062,-2.6075,-2.6122,-2.6124,-2.6095,-2.6097,-2.6099,-2.6099,0,0,0,0,0,0,0,-2.5883,-2.5892,-2.5972,-2.5961,-2.5963,-2.5965,-2.5972,-2.6004,-2.6032,-2.6003,-2.6004,-2.6011,-2.6058,-2.6072,-2.6077,-2.6125,-2.6095,-2.6098,-2.61,-2.6101,-2.6201,-2.6201,0,0,0,0,0,0,-2.5878,-2.5889,-2.597,-2.5974,-2.5923,-2.5968,-2.5975,-2.5995,-2.6032,-2.6037,-2.6012,-2.6012,-2.6067,-2.6073,-2.6079,-2.6119,-2.6099,-2.6101,-2.6103,-2.62,-2.6201,-2.6202,0,0,0,0,0,0,-2.5875,-2.5885,-2.5968,-2.5932,-2.5943,-2.5971,-2.5992,-2.5996,-2.601,-2.6039,-2.6044,-2.6021,-2.6067,-2.6075,-2.6109,-2.6121,-2.6103,-2.6106,-2.6199,-2.62,-2.6201,-2.6201,0,0,0,0,0,0,-2.5872,-2.5884,-2.5898,-2.5932,-2.5944,-2.5998,-2.5993,-2.5998,-2.6016,-2.6016,-2.6049,-2.6053,-2.6067,-2.6104,-2.6112,-2.6125,-2.6108,-2.6198,-2.6199,-2.6201,-2.62,-2.6202,-2.6203,0,0,0,0,0,-2.5868,-2.5895,-2.5898,-2.5908,-2.5962,-2.5999,-2.6006,-2.6022,-2.6017,-2.603,-2.6048,-2.6052,-2.6119,-2.6108,-2.6116,-2.6131,-2.6197,-2.6199,-2.6201,-2.6199,-2.6201,-2.6203,0,0,0,0,0,0,-2.586,-2.5899,-2.5904,-2.5943,-2.5968,-2.6001,-2.6018,-2.6024,-2.605,-2.6049,-2.6067,-2.6074,-2.6107,-2.6123,-2.6109,-2.6164,-2.6158,-2.6161,-2.6153,-2.6156,-2.6157,-2.6152,-2.611,0,0,0,0,0,-2.5863,-2.589,-2.5923,-2.5954,-2.5966,-2.599,-2.6007,-2.6017,-2.6043,-2.6053,-2.6074,-2.6098,-2.6124,-2.6141,-2.6167,-2.6202,-2.6208,-2.6216,-2.6218,-2.6219,-2.6222,-2.6241,-2.6244,-2.6208,-2.6208,-2.6208,0,0,-2.5869,-2.5894,-2.591,-2.5953,-2.5973,-2.6,-2.5999,-2.6027,-2.6047,-2.6057,-2.6091,-2.6107,-2.6134,-2.6169,-2.6186,-2.6183,-2.6234,-2.6222,-2.6223,-2.6225,-2.6243,-2.6246,-2.6249,-2.6209,-2.6209,-2.6209,0,0,-2.5893,-2.5915,-2.5943,-2.5964,-2.5995,-2.6011,-2.6017,-2.605,-2.6061,-2.6096,-2.6103,-2.6126,-2.6172,-2.6191,-2.6206,-2.6237,-2.6241,-2.6245,-2.6255,-2.6273,-2.6275,-2.6278,-2.6288,-2.6291,-2.6248,-2.6248,-2.6248,0,-2.5896,-2.5938,-2.5956,-2.5984,-2.6002,-2.6014,-2.6041,-2.606,-2.6098,-2.6109,-2.6106,-2.6163,-2.6182,-2.6221,-2.6229,-2.6241,-2.6248,-2.6241,-2.6274,-2.6277,-2.6279,-2.6289,-2.6293,-2.6248,-2.6248,-2.6248,-2.6248,0,-2.5939,-2.5968,-2.5986,-2.6023,-2.6043,-2.6071,-2.6092,-2.611,-2.6119,-2.6135,-2.6169,-2.6193,-2.6223,-2.6233,-2.6242,-2.6273,-2.627,-2.627,-2.6264,-2.6283,-2.6292,-2.6296,-2.6248,-2.6248,-2.6248,-2.6248,0,0,-2.5959,-2.6006,-2.6013,-2.6029,-2.6064,-2.6086,-2.6114,-2.6145,-2.6159,-2.6185,-2.6207,-2.6245,-2.6245,-2.6263,-2.6274,-2.6289,-2.6311,-2.6287,-2.6288,-2.629,-2.6345,-2.6344,-2.6348,-2.6314,-2.6315,-2.6316,-2.6343,0,-2.5987,-2.6038,-2.6055,-2.6096,-2.6122,-2.6133,-2.6157,-2.6181,-2.6196,-2.6219,-2.6235,-2.6262,-2.6261,-2.6271,-2.6288,-2.6305,-2.6322,-2.6303,-2.6334,-2.6335,-2.6325,-2.6354,-2.6353,-2.6377,-2.6346,-2.6347,-2.6348,0,-2.6026,-2.6052,-2.6097,-2.6128,-2.614,-2.6161,-2.619,-2.6213,-2.6239,-2.6249,-2.6269,-2.6278,-2.6306,-2.6298,-2.6336,-2.6323,-2.6336,-2.6347,-2.6348,-2.635,-2.6341,-2.6355,-2.6385,-2.6388,-2.6354,-2.6353,-2.6353,0,-2.6034,-2.6082,-2.6114,-2.6128,-2.6166,-2.618,-2.6196,-2.6222,-2.6239,-2.6264,-2.6275,-2.6303,-2.6318,-2.6338,-2.6354,-2.6348,-2.639,-2.6384,-2.6398,-2.6397,-2.6405,-2.6404,-2.6436,-2.6416,-2.6416,-2.6416,-2.6416,0,-2.6062,-2.6089,-2.6118,-2.6138,-2.6167,-2.6186,-2.6215,-2.6231,-2.6254,-2.6276,-2.6287,-2.6308,-2.6328,-2.6351,-2.6364,-2.6392,-2.6399,-2.6407,-2.6409,-2.6405,-2.6404,-2.6413,-2.6411,-2.6417,-2.6416,-2.6416,-2.6416,0,-2.6077,-2.6098,-2.6134,-2.6167,-2.6176,-2.6196,-2.6223,-2.6242,-2.6258,-2.6286,-2.6293,-2.6318,-2.6345,-2.6363,-2.6398,-2.6406,-2.6437,-2.644,-2.6428,-2.6429,-2.6441,-2.6439,-2.6479,-2.6485,-2.6462,-2.6462,-2.6462,0,-2.6093,-2.6113,-2.6149,-2.6165,-2.6181,-2.6207,-2.6225,-2.6244,-2.6262,-2.6293,-2.6308,-2.6336,-2.636,-2.6402,-2.6422,-2.6448,-2.6452,-2.6464,-2.6455,-2.645,-2.645,-2.6448,-2.645,-2.6465,-2.6465,-2.6465,-2.6465,0,-2.6119,-2.6128,-2.6154,-2.6183,-2.6204,-2.6228,-2.6252,-2.6264,-2.6287,-2.6306,-2.6335,-2.6353,-2.6389,-2.6416,-2.6444,-2.6459,-2.6465,-2.6468,-2.6472,-2.6467,-2.6459,-2.6462,-2.643,-2.6466,-2.6466,-2.6466,-2.6466,-2.6466,-2.6134,-2.6152,-2.618,-2.6208,-2.6228,-2.625,-2.6269,-2.6287,-2.6312,-2.6343,-2.6353,-2.6382,-2.6407,-2.6445,-2.6461,-2.6483,-2.6482,-2.6488,-2.649,-2.6491,-2.649,-2.6457,-2.6488,-2.6488,-2.6488,-2.6488,-2.6488,0,-2.6159,-2.6177,-2.6203,-2.6236,-2.6258,-2.6264,-2.629,-2.6307,-2.6333,-2.6357,-2.638,-2.6412,-2.6438,-2.646,-2.6487,-2.6501,-2.6504,-2.6507,-2.6506,-2.6509,-2.649,-2.6483,-2.6504,-2.6504,-2.6504,-2.6504,-2.6504,-2.6504,-2.6175,-2.6206,-2.6218,-2.6259,-2.6277,-2.6307,-2.6321,-2.6341,-2.6359,-2.6395,-2.6418,-2.6432,-2.6455,-2.6483,-2.6507,-2.6513,-2.6522,-2.6524,-2.653,-2.6512,-2.651,-2.6508,-2.6502,-2.6526,-2.6526,-2.6547,-2.6547,-2.6547]}]]